Time,TemperatureF,DewpointF,PressureIn,WindDirection,WindDirectionDegrees,WindSpeedMPH,WindSpeedGustMPH,Humidity,HourlyPrecipIn,Conditions,Clouds,dailyrainin,SoftwareType,DateUTC
2013-01-14 00:08:00,17.1,7.0,30.37,NW,307,0.0,1.0,65,0.00,,,0.00,weatherlink.com 1.10,2013-01-14 06:08:00,
2013-01-14 00:23:00,17.1,8.0,30.38,NW,307,0.0,1.0,66,0.00,,,0.00,weatherlink.com 1.10,2013-01-14 06:23:00,
2013-01-14 00:38:00,16.6,7.0,30.39,NW,307,0.0,0.0,66,0.00,,,0.00,weatherlink.com 1.10,2013-01-14 06:38:00,
2013-01-14 00:53:00,15.4,7.0,30.40,NW,307,0.0,0.0,68,0.00,,,0.00,weatherlink.com 1.10,2013-01-14 06:53:00,
2013-01-14 01:08:00,15.1,7.0,30.41,NW,306,0.0,0.0,71,0.00,,,0.00,weatherlink.com 1.10,2013-01-14 07:08:00,
2013-01-14 01:23:00,15.2,7.0,30.41,NW,306,0.0,0.0,71,0.00,,,0.00,weatherlink.com 1.10,2013-01-14 07:23:00,
2013-01-14 01:38:00,14.2,7.0,30.43,NW,306,0.0,0.0,72,0.00,,,0.00,weatherlink.com 1.10,2013-01-14 07:38:00,
2013-01-14 01:53:00,14.6,7.0,30.44,NW,307,0.0,0.0,73,0.00,,,0.00,weatherlink.com 1.10,2013-01-14 07:53:00,
2013-01-14 02:08:00,13.9,7.0,30.45,NW,306,0.0,0.0,74,0.00,,,0.00,weatherlink.com 1.10,2013-01-14 08:08:00,
2013-01-14 02:24:00,13.9,8.0,30.45,NW,306,0.0,0.0,76,0.00,,,0.00,weatherlink.com 1.10,2013-01-14 08:24:00,
2013-01-14 02:39:00,13.6,7.0,30.45,NW,307,0.0,0.0,76,0.00,,,0.00,weatherlink.com 1.10,2013-01-14 08:39:00,
2013-01-14 02:54:00,13.2,8.0,30.46,NW,306,0.0,0.0,78,0.00,,,0.00,weatherlink.com 1.10,2013-01-14 08:54:00,
2013-01-14 03:09:00,12.3,7.0,30.45,NW,306,0.0,0.0,79,0.00,,,0.00,weatherlink.com 1.10,2013-01-14 09:09:00,
2013-01-14 03:24:00,12.4,8.0,30.45,NW,306,0.0,0.0,81,0.00,,,0.00,weatherlink.com 1.10,2013-01-14 09:24:00,
2013-01-14 03:39:00,12.9,8.0,30.45,NW,307,0.0,0.0,80,0.00,,,0.00,weatherlink.com 1.10,2013-01-14 09:39:00,
2013-01-14 03:54:00,12.3,8.0,30.44,NW,307,0.0,0.0,81,0.00,,,0.00,weatherlink.com 1.10,2013-01-14 09:54:00,
2013-01-14 04:09:00,11.9,7.0,30.44,NW,307,0.0,0.0,81,0.00,,,0.00,weatherlink.com 1.10,2013-01-14 10:09:00,
2013-01-14 04:24:00,11.4,7.0,30.43,NW,307,0.0,0.0,83,0.00,,,0.00,weatherlink.com 1.10,2013-01-14 10:24:00,
2013-01-14 04:39:00,10.7,7.0,30.43,NW,306,0.0,0.0,83,0.00,,,0.00,weatherlink.com 1.10,2013-01-14 10:39:00,
2013-01-14 04:54:00,11.0,7.0,30.44,NW,306,0.0,0.0,85,0.00,,,0.00,weatherlink.com 1.10,2013-01-14 10:54:00,
2013-01-14 05:09:00,11.2,8.0,30.44,NW,306,0.0,0.0,85,0.00,,,0.00,weatherlink.com 1.10,2013-01-14 11:09:00,
2013-01-14 05:24:00,10.9,7.0,30.44,NW,307,0.0,0.0,84,0.00,,,0.00,weatherlink.com 1.10,2013-01-14 11:24:00,
2013-01-14 05:39:00,11.5,8.0,30.44,NW,306,0.0,0.0,84,0.00,,,0.00,weatherlink.com 1.10,2013-01-14 11:39:00,
2013-01-14 05:54:00,11.1,7.0,30.45,NW,306,0.0,0.0,84,0.00,,,0.00,weatherlink.com 1.10,2013-01-14 11:54:00,
2013-01-14 06:09:00,11.2,8.0,30.45,NW,306,0.0,0.0,85,0.00,,,0.00,weatherlink.com 1.10,2013-01-14 12:09:00,
2013-01-14 06:24:00,11.1,8.0,30.44,NW,306,0.0,0.0,86,0.00,,,0.00,weatherlink.com 1.10,2013-01-14 12:24:00,
2013-01-14 06:39:00,11.7,8.0,30.44,NW,307,0.0,0.0,86,0.00,,,0.00,weatherlink.com 1.10,2013-01-14 12:39:00,
2013-01-14 06:54:00,11.5,8.0,30.45,NW,306,0.0,0.0,86,0.00,,,0.00,weatherlink.com 1.10,2013-01-14 12:54:00,
2013-01-14 07:09:00,11.5,8.0,30.46,NW,306,0.0,0.0,86,0.00,,,0.00,weatherlink.com 1.10,2013-01-14 13:09:00,
2013-01-14 07:24:00,12.3,8.0,30.47,NW,306,0.0,0.0,83,0.00,,,0.00,weatherlink.com 1.10,2013-01-14 13:24:00,
2013-01-14 07:39:00,12.6,8.0,30.48,NW,306,0.0,0.0,82,0.00,,,0.00,weatherlink.com 1.10,2013-01-14 13:39:00,
2013-01-14 07:54:00,12.8,8.0,30.48,NW,306,0.0,0.0,81,0.00,,,0.00,weatherlink.com 1.10,2013-01-14 13:54:00,
2013-01-14 08:09:00,13.0,8.0,30.49,NW,307,0.0,0.0,81,0.00,,,0.00,weatherlink.com 1.10,2013-01-14 14:09:00,
2013-01-14 08:24:00,13.3,8.0,30.49,NW,307,0.0,0.0,80,0.00,,,0.00,weatherlink.com 1.10,2013-01-14 14:24:00,
2013-01-14 08:39:00,14.3,9.0,30.50,WNW,298,0.0,1.0,78,0.00,,,0.00,weatherlink.com 1.10,2013-01-14 14:39:00,
2013-01-14 08:54:00,15.3,9.0,30.51,WNW,295,0.0,1.0,76,0.00,,,0.00,weatherlink.com 1.10,2013-01-14 14:54:00,
2013-01-14 09:09:00,16.8,10.0,30.52,NNW,330,1.0,1.0,74,0.00,,,0.00,weatherlink.com 1.10,2013-01-14 15:09:00,
2013-01-14 09:24:00,17.6,10.0,30.52,NW,309,0.0,2.0,72,0.00,,,0.00,weatherlink.com 1.10,2013-01-14 15:24:00,
2013-01-14 09:39:00,19.2,10.0,30.52,WNW,289,2.0,4.0,68,0.00,,,0.00,weatherlink.com 1.10,2013-01-14 15:39:00,
2013-01-14 09:54:00,21.2,11.0,30.52,NNW,338,0.0,3.0,65,0.00,,,0.00,weatherlink.com 1.10,2013-01-14 15:54:00,
2013-01-14 10:09:00,21.4,10.0,30.52,NW,316,2.0,4.0,62,0.00,,,0.00,weatherlink.com 1.10,2013-01-14 16:09:00,
2013-01-14 10:24:00,21.7,10.0,30.52,WNW,295,4.0,4.0,60,0.00,,,0.00,weatherlink.com 1.10,2013-01-14 16:24:00,
2013-01-14 10:40:00,22.5,9.0,30.50,NNW,328,0.0,4.0,57,0.00,,,0.00,weatherlink.com 1.10,2013-01-14 16:40:00,
2013-01-14 10:55:00,22.9,9.0,30.50,NW,307,1.0,6.0,56,0.00,,,0.00,weatherlink.com 1.10,2013-01-14 16:55:00,
2013-01-14 11:10:00,23.4,9.0,30.48,WNW,300,0.0,4.0,54,0.00,,,0.00,weatherlink.com 1.10,2013-01-14 17:10:00,
2013-01-14 11:25:00,23.9,8.0,30.47,WNW,293,1.0,5.0,50,0.00,,,0.00,weatherlink.com 1.10,2013-01-14 17:25:00,
2013-01-14 11:40:00,24.2,10.0,30.46,ENE,65,0.0,5.0,54,0.00,,,0.00,weatherlink.com 1.10,2013-01-14 17:40:00,
2013-01-14 11:55:00,25.2,11.0,30.45,East,85,0.0,4.0,54,0.00,,,0.00,weatherlink.com 1.10,2013-01-14 17:55:00,
2013-01-14 12:10:00,26.2,9.0,30.44,NW,314,2.0,5.0,48,0.00,,,0.00,weatherlink.com 1.10,2013-01-14 18:10:00,
2013-01-14 12:25:00,26.9,8.0,30.43,NE,40,0.0,4.0,44,0.00,,,0.00,weatherlink.com 1.10,2013-01-14 18:25:00,
2013-01-14 12:40:00,26.9,7.0,30.43,ENE,58,0.0,5.0,43,0.00,,,0.00,weatherlink.com 1.10,2013-01-14 18:40:00,
2013-01-14 12:55:00,27.0,6.0,30.43,NW,307,0.0,4.0,41,0.00,,,0.00,weatherlink.com 1.10,2013-01-14 18:55:00,
2013-01-14 13:10:00,27.7,7.0,30.42,WNW,293,1.0,5.0,42,0.00,,,0.00,weatherlink.com 1.10,2013-01-14 19:10:00,
2013-01-14 13:25:00,28.3,7.0,30.42,ENE,63,0.0,3.0,40,0.00,,,0.00,weatherlink.com 1.10,2013-01-14 19:25:00,
2013-01-14 13:40:00,29.1,7.0,30.42,WNW,301,1.0,3.0,40,0.00,,,0.00,weatherlink.com 1.10,2013-01-14 19:40:00,
2013-01-14 13:55:00,29.4,7.0,30.41,NW,309,0.0,2.0,39,0.00,,,0.00,weatherlink.com 1.10,2013-01-14 19:55:00,
2013-01-14 14:10:00,30.0,6.0,30.41,SSE,159,0.0,2.0,37,0.00,,,0.00,weatherlink.com 1.10,2013-01-14 20:10:00,
2013-01-14 14:25:00,30.1,7.0,30.41,NNE,25,0.0,2.0,37,0.00,,,0.00,weatherlink.com 1.10,2013-01-14 20:25:00,
2013-01-14 14:40:00,30.4,7.0,30.41,NNE,26,3.0,3.0,37,0.00,,,0.00,weatherlink.com 1.10,2013-01-14 20:40:00,
2013-01-14 14:55:00,29.7,6.0,30.41,South,175,0.0,2.0,36,0.00,,,0.00,weatherlink.com 1.10,2013-01-14 20:55:00,
2013-01-14 15:10:00,29.4,7.0,30.41,East,85,0.0,1.0,38,0.00,,,0.00,weatherlink.com 1.10,2013-01-14 21:10:00,
2013-01-14 15:25:00,29.1,7.0,30.41,NE,56,0.0,4.0,39,0.00,,,0.00,weatherlink.com 1.10,2013-01-14 21:25:00,
2013-01-14 15:40:00,28.8,7.0,30.41,NE,46,1.0,4.0,39,0.00,,,0.00,weatherlink.com 1.10,2013-01-14 21:40:00,
2013-01-14 15:55:00,28.6,6.0,30.41,West,264,0.0,3.0,39,0.00,,,0.00,weatherlink.com 1.10,2013-01-14 21:55:00,
2013-01-14 16:10:00,28.6,7.0,30.41,North,8,1.0,3.0,40,0.00,,,0.00,weatherlink.com 1.10,2013-01-14 22:10:00,
2013-01-14 16:25:00,28.4,6.0,30.41,NNE,16,0.0,1.0,39,0.00,,,0.00,weatherlink.com 1.10,2013-01-14 22:25:00,
2013-01-14 16:40:00,28.3,7.0,30.40,ENE,58,0.0,3.0,41,0.00,,,0.00,weatherlink.com 1.10,2013-01-14 22:40:00,
2013-01-14 16:55:00,27.9,9.0,30.41,SSW,201,2.0,2.0,45,0.00,,,0.00,weatherlink.com 1.10,2013-01-14 22:55:00,
2013-01-14 17:10:00,26.6,11.0,30.40,SE,139,1.0,3.0,51,0.00,,,0.00,weatherlink.com 1.10,2013-01-14 23:10:00,
2013-01-14 17:25:00,25.7,11.0,30.40,SE,124,0.0,2.0,54,0.00,,,0.00,weatherlink.com 1.10,2013-01-14 23:25:00,
2013-01-14 17:40:00,24.8,11.0,30.40,SSW,193,0.0,2.0,55,0.00,,,0.00,weatherlink.com 1.10,2013-01-14 23:40:00,
2013-01-14 17:55:00,24.2,11.0,30.40,SSE,147,0.0,1.0,57,0.00,,,0.00,weatherlink.com 1.10,2013-01-14 23:55:00,
2013-01-14 18:10:00,23.6,10.0,30.41,SSW,197,0.0,0.0,57,0.00,,,0.00,weatherlink.com 1.10,2013-01-15 00:10:00,
2013-01-14 18:25:00,23.2,11.0,30.42,SSW,198,0.0,1.0,59,0.00,,,0.00,weatherlink.com 1.10,2013-01-15 00:25:00,
2013-01-14 18:40:00,22.5,10.0,30.42,SSW,198,0.0,0.0,60,0.00,,,0.00,weatherlink.com 1.10,2013-01-15 00:40:00,
2013-01-14 18:55:00,22.3,11.0,30.42,SSW,198,0.0,0.0,61,0.00,,,0.00,weatherlink.com 1.10,2013-01-15 00:55:00,
2013-01-14 19:10:00,22.4,11.0,30.42,SSW,198,0.0,0.0,61,0.00,,,0.00,weatherlink.com 1.10,2013-01-15 01:10:00,
2013-01-14 19:25:00,22.2,10.0,30.42,SSW,198,0.0,0.0,60,0.00,,,0.00,weatherlink.com 1.10,2013-01-15 01:25:00,
2013-01-14 19:40:00,21.3,10.0,30.42,SSW,198,0.0,0.0,62,0.00,,,0.00,weatherlink.com 1.10,2013-01-15 01:40:00,
2013-01-14 19:55:00,21.1,11.0,30.43,SSW,198,0.0,0.0,64,0.00,,,0.00,weatherlink.com 1.10,2013-01-15 01:55:00,
2013-01-14 20:10:00,20.6,10.0,30.43,SSW,198,0.0,0.0,65,0.00,,,0.00,weatherlink.com 1.10,2013-01-15 02:10:00,
2013-01-14 20:25:00,20.5,11.0,30.42,SSW,199,0.0,0.0,66,0.00,,,0.00,weatherlink.com 1.10,2013-01-15 02:25:00,
2013-01-14 20:40:00,20.7,11.0,30.42,SSW,198,0.0,0.0,66,0.00,,,0.00,weatherlink.com 1.10,2013-01-15 02:40:00,
2013-01-14 20:55:00,20.2,11.0,30.42,SSW,198,0.0,0.0,67,0.00,,,0.00,weatherlink.com 1.10,2013-01-15 02:55:00,
2013-01-14 21:10:00,20.3,11.0,30.41,SSW,198,0.0,0.0,68,0.00,,,0.00,weatherlink.com 1.10,2013-01-15 03:10:00,
2013-01-14 21:25:00,19.8,11.0,30.41,SSW,198,0.0,0.0,69,0.00,,,0.00,weatherlink.com 1.10,2013-01-15 03:25:00,
2013-01-14 21:40:00,19.6,11.0,30.41,SSW,198,0.0,0.0,70,0.00,,,0.00,weatherlink.com 1.10,2013-01-15 03:40:00,
2013-01-14 21:55:00,19.3,11.0,30.42,SSW,198,0.0,0.0,71,0.00,,,0.00,weatherlink.com 1.10,2013-01-15 03:55:00,
2013-01-14 22:10:00,18.8,12.0,30.42,SSW,198,0.0,0.0,73,0.00,,,0.00,weatherlink.com 1.10,2013-01-15 04:10:00,
2013-01-14 22:25:00,18.8,11.0,30.41,SSW,199,0.0,0.0,72,0.00,,,0.00,weatherlink.com 1.10,2013-01-15 04:25:00,
2013-01-14 22:40:00,18.3,10.0,30.41,SSW,198,0.0,0.0,70,0.00,,,0.00,weatherlink.com 1.10,2013-01-15 04:40:00,
2013-01-14 22:55:00,17.9,11.0,30.41,SSW,198,0.0,0.0,73,0.00,,,0.00,weatherlink.com 1.10,2013-01-15 04:55:00,
2013-01-14 23:25:00,16.8,10.0,30.41,SSW,198,0.0,0.0,74,0.00,,,0.00,weatherlink.com 1.10,2013-01-15 05:25:00,
2013-01-14 23:40:00,16.6,10.0,30.41,SSW,198,0.0,0.0,75,0.00,,,0.00,weatherlink.com 1.10,2013-01-15 05:40:00,
2013-01-14 23:55:00,16.4,10.0,30.41,SSW,199,0.0,0.0,76,0.00,,,0.00,weatherlink.com 1.10,2013-01-15 05:55:00,